Back to catalog

STARLINK-35323

AliveCommunicationsVLEO
NORAD 66071·PAYLOAD·🇺🇸 United States

Launched Oct 19, 2025 from Cape Canaveral Space Force Station

Loading…

Next Passes (next 24 hours)

TLE

FreshSource: CelesTrak SupGP

Epoch: Sep 14, 2026, 21:01 UTC

1 66071C 25235P   26257.87618056 -.00012677  00000+0 -37466-3 0  2570
2 66071  53.1599  85.7114 0001200  86.0726  74.9107 15.34387232    19

Track STARLINK-35323 in real time with AllMySat

Download on the App Store